"Pseudo-MPEC" for ZTF037x

Created 2019 May 16 15:07:28 UT using Find_Orb

Click here for an explanation of pseudo-MPECs

 
 Astrometry: 
     ZTF037x  C2019 05 13.34123818 00 46.73 +35 03 36.5    ~5DKb 18.66iUNEOCPI41
     ZTF037x  C2019 05 13.34158518 00 45.76 +35 03 55.5    ~5DKb 18.66iUNEOCPI41
     ZTF037x  C2019 05 13.39511717 58 04.83 +35 58 25.0    ~5DJb 18.52RUNEOCPI41
     ZTF037x  C2019 05 13.39546417 58 03.60 +35 58 48.4    ~5DJb 18.52RUNEOCPI41
     ZTF037x  C2019 05 13.40168717 57 41.59 +36 05 55.4    ~5EN7       UNEOCPI41
     ZTF037x  C2019 05 13.40203417 57 40.33 +36 06 19.5    ~5EN7       UNEOCPI41
     ZTF037x  C2019 05 13.40265017 57 38.36 +36 06 59.9    ~5EN7 18.41RUNEOCPI41
     ZTF037x  C2019 05 13.40299717 57 37.10 +36 07 23.7    ~5EN7 18.41RUNEOCPI41
     ZTF037x  C2019 05 13.43748417 55 22.59 +36 50 03.2    ~5DJb 18.16RUNEOCPI41
     ZTF037x  C2019 05 13.43783117 55 21.03 +36 50 30.1    ~5DJb 18.16RUNEOCPI41
     ZTF037x  C2019 05 13.44497817 54 50.29 +37 00 03.4    ~5EN7 18.67gUNEOCPI41
     ZTF037x  C2019 05 13.44532517 54 48.59 +37 00 33.3    ~5EN7 18.67gUNEOCPI41
     ZTF037x  C2019 05 13.46991017 52 52.86 +37 35 51.1    ~5EN7 18.52gUNEOCPI41
     ZTF037x  C2019 05 13.47025717 52 51.10 +37 36 21.3    ~5EN7 18.52gUNEOCPI41
     ZTF037x  C2019 05 13.47084017 52 48.45 +37 37 12.9    ~5DJb 18.62gUNEOCPI41
     ZTF037x  C2019 05 13.47118717 52 46.54 +37 37 46.4    ~5DJb 18.62gUNEOCPI41
     ZTF037x  C2019 05 13.48771517 51 18.96 +38 03 56.0    ~5DKb 18.43gUNEOCPI41
     ZTF037x  C2019 05 13.48806217 51 16.86 +38 04 30.9    ~5DKb 18.43gUNEOCPI41

Station data:
(I41) Palomar Mountain--ZTF  (N33.357340 W116.859780)  US/California. 1.2-m
   f/2.44 Oschin Schmidt + CCD.

Orbital elements:  ZTF037x
   Perihelion 2019 Jul 29.992332 +/- 0.454 TT = 23:48:57 (JD 2458694.492332)
Epoch 2019 May 13.0 TT = JDT 2458616.5   Earth MOID: 0.0005   Ve: 0.0827
M 270.91630887 +/- 1.1              (J2000 ecliptic)          AutoNEOCP
n   1.14221089 +/- 0.00795          Peri.  307.49692 +/- 0.6
a   0.90636929 +/- 0.00421          Node    52.53893 +/- 0.0009
e   0.3680097 +/- 0.00172           Incl.   40.94847 +/- 0.51
P   0.86/315.17d           H 27.6   G  0.15   U  9.5  
q 0.57281658 +/- 0.00116    Q 1.23992199 +/- 0.00731
From 18 observations 2019 May 13 (3.5 hr); mean residual 1".88
Residuals in arcseconds: 
190513 I41  .26-  1.0+    190513 I41  1.2+  1.4-    190513 I41  .20-  .02-    
190513 I41  .97-  .71+    190513 I41  .95+  1.6-    190513 I41  .36-  1.4-    
190513 I41  3.1+  2.8-    190513 I41  2.0-  4.0+    190513 I41  3.1+  2.9-    
190513 I41  2.6+  2.8-    190513 I41  3.1-  3.4+    190513 I41  1.3+  1.2-    
190513 I41  1.1-  .53+    190513 I41  .58-  1.1+    190513 I41  1.2+  .30-    
190513 I41  1.4-  .71+    190513 I41  2.6-  2.7+    190513 I41  .88-  .38+    

Ephemerides (geocentric):
Date (UTC) HH   RA              Dec         delta   r     elong  mag " sig PA
---- -- -- --  -------------   -----------  ------ ------ -----  --- ---- ---
2019 05 16 15  06 19 59.560   -26 14 03.85  .03540 0.9944  61.0 24.9  152  41
2019 05 16 16  06 19 56.582   -26 15 22.30  .03593 0.9941  61.0 25.0  151  41
2019 05 16 17  06 19 53.683   -26 16 38.36  .03646 0.9939  61.0 25.0  151  41
2019 05 16 18  06 19 50.858   -26 17 52.14  .03699 0.9937  61.0 25.0  151  41
2019 05 16 19  06 19 48.104   -26 19 03.72  .03753 0.9934  61.0 25.0  151  41
2019 05 16 20  06 19 45.419   -26 20 13.20  .03806 0.9932  61.0 25.1  151  41
2019 05 16 21  06 19 42.798   -26 21 20.67  .03859 0.9929  61.0 25.1  150  41
2019 05 16 22  06 19 40.240   -26 22 26.20  .03912 0.9927  60.9 25.1  150  41
2019 05 16 23  06 19 37.742   -26 23 29.87  .03966 0.9925  60.9 25.2  150  41
2019 05 17 00  06 19 35.302   -26 24 31.76  .04019 0.9922  60.9 25.2  150  41
2019 05 17 01  06 19 32.917   -26 25 31.94  .04072 0.9920  60.9 25.2  150  41
2019 05 17 02  06 19 30.584   -26 26 30.46  .04125 0.9917  60.9 25.2  150  41
2019 05 17 03  06 19 28.303   -26 27 27.39  .04179 0.9915  60.9 25.3  150  41
2019 05 17 04  06 19 26.071   -26 28 22.80  .04232 0.9912  60.9 25.3  149  41
2019 05 17 05  06 19 23.885   -26 29 16.72  .04285 0.9910  60.8 25.3  149  41
2019 05 17 06  06 19 21.745   -26 30 09.23  .04339 0.9908  60.8 25.3  149  41
2019 05 17 07  06 19 19.649   -26 31 00.36  .04392 0.9905  60.8 25.4  149  41
2019 05 17 08  06 19 17.594   -26 31 50.18  .04445 0.9903  60.8 25.4  149  41
2019 05 17 09  06 19 15.580   -26 32 38.71  .04498 0.9900  60.8 25.4  149  41
2019 05 17 10  06 19 13.605   -26 33 26.01  .04552 .98978  60.8 25.4  149  41
2019 05 17 11  06 19 11.667   -26 34 12.12  .04605 .98954  60.7 25.5  148  41
2019 05 17 12  06 19 09.765   -26 34 57.07  .04658 .98929  60.7 25.5  148  41
2019 05 17 13  06 19 07.899   -26 35 40.91  .04711 .98905  60.7 25.5  148  41
2019 05 17 14  06 19 06.066   -26 36 23.68  .04765 .98881  60.7 25.5  148  41
2019 05 17 15  06 19 04.265   -26 37 05.39  .04818 .98856  60.7 25.6  148  41
2019 05 17 16  06 19 02.496   -26 37 46.10  .04871 .98832  60.7 25.6  148  41
2019 05 17 17  06 19 00.757   -26 38 25.83  .04924 .98807  60.7 25.6  148  41
2019 05 17 18  06 18 59.047   -26 39 04.61  .04978 .98783  60.6 25.6  148  41
2019 05 17 19  06 18 57.365   -26 39 42.47  .05031 .98758  60.6 25.6  148  41
2019 05 17 20  06 18 55.711   -26 40 19.43  .05084 .98734  60.6 25.7  148  41
2019 05 17 21  06 18 54.083   -26 40 55.53  .05137 .98710  60.6 25.7  147  41
2019 05 17 22  06 18 52.481   -26 41 30.79  .05191 .98685  60.6 25.7  147  41
2019 05 17 23  06 18 50.904   -26 42 05.24  .05244 .98661  60.6 25.7  147  41
2019 05 18 00  06 18 49.350   -26 42 38.89  .05297 .98636  60.5 25.7  147  41
2019 05 18 01  06 18 47.820   -26 43 11.78  .05350 .98612  60.5 25.8  147  41
2019 05 18 02  06 18 46.312   -26 43 43.91  .05404 .98587  60.5 25.8  147  41
2019 05 18 03  06 18 44.825   -26 44 15.32  .05457 .98563  60.5 25.8  147  41
2019 05 18 04  06 18 43.360   -26 44 46.02  .05510 .98538  60.5 25.8  147  41
2019 05 18 05  06 18 41.915   -26 45 16.03  .05564 .98513  60.5 25.8  147  41
2019 05 18 06  06 18 40.490   -26 45 45.38  .05617 .98489  60.4 25.9  147  41
2019 05 18 07  06 18 39.084   -26 46 14.07  .05670 .98464  60.4 25.9  147  41
2019 05 18 08  06 18 37.696   -26 46 42.13  .05723 .98440  60.4 25.9  147  41
2019 05 18 09  06 18 36.326   -26 47 09.57  .05777 .98415  60.4 25.9  146  41
2019 05 18 10  06 18 34.974   -26 47 36.41  .05830 .98391  60.4 25.9  146  41
2019 05 18 11  06 18 33.639   -26 48 02.66  .05883 .98366  60.4 26.0  146  41
2019 05 18 12  06 18 32.320   -26 48 28.34  .05936 .98341  60.3 26.0  146  41
2019 05 18 13  06 18 31.017   -26 48 53.47  .05989 .98317  60.3 26.0  146  41
2019 05 18 14  06 18 29.729   -26 49 18.04  .06043 .98292  60.3 26.0  146  41